Precipitable_Water
0.27 0.27 0.25 0.22 0.19 0.18 0.16 0.15 0.14 0.14 0.13 0.13 0.14 0.14 0.15 0.17 0.21 0.26 0.37 0.53 0.66 0.87 1.06 1.17 1.23 1.26 1.31 1.40 1.50 1.60 1.62 1.63 1.50 1.56 1.67 1.61 1.61 1.60 1.60 1.46 1.26 1.09 0.99
0.27 0.25 0.23 0.21 0.20 0.20 0.18 0.17 0.15 0.14 0.14 0.15 0.14 0.14 0.15 0.16 0.18 0.19 0.23 0.29 0.44 0.56 0.71 0.83 0.94 1.08 1.15 1.18 1.25 1.33 1.43 1.55 1.60 1.53 1.57 1.67 1.66 1.61 1.64 1.64 1.59 1.31 1.12
0.29 0.27 0.24 0.22 0.22 0.21 0.20 0.18 0.18 0.17 0.16 0.16 0.15 0.16 0.17 0.17 0.18 0.18 0.19 0.20 0.24 0.33 0.38 0.47 0.60 0.79 0.86 0.95 1.04 1.12 1.22 1.31 1.40 1.49 1.50 1.55 1.63 1.68 1.64 1.68 1.68 1.65 1.43
0.30 0.28 0.26 0.25 0.24 0.23 0.21 0.20 0.19 0.17 0.17 0.17 0.17 0.19 0.19 0.19 0.19 0.18 0.19 0.20 0.20 0.20 0.26 0.27 0.30 0.38 0.54 0.70 0.82 0.90 1.00 1.06 1.17 1.29 1.37 1.40 1.42 1.55 1.65 1.64 1.62 1.70 1.71
0.32 0.29 0.27 0.26 0.25 0.23 0.22 0.22 0.22 0.20 0.19 0.19 0.19 0.21 0.21 0.20 0.21 0.20 0.20 0.20 0.20 0.20 0.20 0.21 0.22 0.25 0.29 0.37 0.50 0.64 0.76 0.89 1.01 1.09 1.21 1.31 1.34 1.39 1.48 1.61 1.62 1.63 1.69
0.34 0.31 0.29 0.28 0.26 0.25 0.24 0.24 0.23 0.23 0.23 0.21 0.21 0.21 0.21 0.22 0.22 0.22 0.21 0.22 0.21 0.22 0.21 0.21 0.20 0.20 0.23 0.26 0.31 0.36 0.48 0.62 0.77 0.92 1.04 1.12 1.19 1.26 1.33 1.41 1.51 1.60 1.63
0.35 0.32 0.31 0.29 0.28 0.26 0.25 0.25 0.25 0.23 0.22 0.23 0.21 0.21 0.23 0.24 0.23 0.24 0.24 0.24 0.23 0.23 0.23 0.22 0.21 0.21 0.20 0.22 0.24 0.28 0.32 0.39 0.52 0.65 0.79 0.95 1.03 1.15 1.22 1.29 1.38 1.43 1.49
0.35 0.33 0.32 0.31 0.30 0.29 0.28 0.28 0.27 0.25 0.25 0.25 0.22 0.21 0.19 0.22 0.25 0.26 0.27 0.26 0.25 0.24 0.24 0.23 0.22 0.22 0.21 0.21 0.22 0.24 0.28 0.34 0.38 0.46 0.61 0.67 0.76 0.93 1.04 1.12 1.20 1.25 1.32
0.35 0.34 0.33 0.32 0.32 0.31 0.29 0.29 0.28 0.27 0.24 0.25 0.24 0.21 0.19 0.19 0.22 0.25 0.26 0.26 0.25 0.24 0.24 0.23 0.23 0.23 0.22 0.22 0.21 0.23 0.27 0.31 0.33 0.38 0.42 0.51 0.60 0.68 0.79 0.90 0.99 1.11 1.16
0.36 0.35 0.34 0.33 0.32 0.31 0.30 0.30 0.31 0.29 0.28 0.26 0.27 0.27 0.27 0.26 0.22 0.21 0.26 0.26 0.25 0.23 0.23 0.23 0.22 0.23 0.23 0.22 0.22 0.23 0.26 0.28 0.31 0.33 0.34 0.36 0.39 0.49 0.61 0.69 0.79 0.90 0.99
0.37 0.36 0.34 0.32 0.31 0.31 0.31 0.30 0.30 0.30 0.30 0.29 0.29 0.29 0.30 0.30 0.30 0.27 0.24 0.24 0.25 0.24 0.24 0.22 0.22 0.21 0.21 0.21 0.21 0.22 0.24 0.26 0.27 0.29 0.32 0.34 0.35 0.36 0.39 0.49 0.61 0.68 0.75
0.36 0.35 0.34 0.33 0.31 0.30 0.30 0.30 0.30 0.30 0.30 0.31 0.32 0.33 0.33 0.32 0.32 0.30 0.28 0.26 0.25 0.25 0.25 0.24 0.23 0.23 0.23 0.23 0.23 0.24 0.26 0.26 0.26 0.27 0.29 0.32 0.33 0.33 0.33 0.34 0.34 0.42 0.55
0.35 0.34 0.34 0.33 0.33 0.33 0.33 0.33 0.33 0.33 0.34 0.34 0.35 0.35 0.35 0.34 0.34 0.33 0.31 0.29 0.28 0.26 0.24 0.25 0.25 0.26 0.26 0.26 0.26 0.27 0.26 0.26 0.26 0.27 0.29 0.30 0.30 0.28 0.28 0.27 0.27 0.28 0.30
0.37 0.37 0.36 0.35 0.35 0.35 0.36 0.36 0.36 0.36 0.37 0.37 0.35 0.34 0.33 0.34 0.34 0.33 0.30 0.29 0.26 0.27 0.25 0.22 0.25 0.25 0.26 0.27 0.28 0.28 0.27 0.26 0.26 0.26 0.28 0.28 0.26 0.26 0.26 0.25 0.24 0.25 0.26
0.35 0.35 0.35 0.36 0.38 0.40 0.39 0.38 0.37 0.35 0.35 0.33 0.32 0.31 0.30 0.31 0.31 0.31 0.31 0.30 0.27 0.23 0.23 0.24 0.23 0.26 0.26 0.27 0.28 0.28 0.27 0.26 0.27 0.27 0.26 0.25 0.24 0.24 0.25 0.25 0.26 0.25 0.25
0.33 0.33 0.34 0.35 0.37 0.36 0.35 0.35 0.34 0.34 0.32 0.31 0.30 0.29 0.29 0.29 0.29 0.29 0.29 0.29 0.28 0.25 0.22 0.24 0.24 0.26 0.27 0.27 0.28 0.28 0.28 0.28 0.27 0.27 0.27 0.27 0.26 0.25 0.24 0.24 0.24 0.24 0.25
0.30 0.30 0.30 0.31 0.32 0.31 0.31 0.31 0.30 0.30 0.28 0.28 0.28 0.28 0.27 0.28 0.27 0.27 0.27 0.27 0.26 0.25 0.22 0.23 0.25 0.26 0.25 0.25 0.25 0.27 0.27 0.26 0.25 0.26 0.27 0.28 0.28 0.27 0.27 0.26 0.25 0.24 0.23
0.29 0.29 0.30 0.28 0.27 0.27 0.27 0.26 0.26 0.26 0.26 0.26 0.26 0.26 0.26 0.27 0.27 0.27 0.27 0.26 0.26 0.26 0.25 0.23 0.24 0.24 0.24 0.25 0.25 0.25 0.26 0.27 0.26 0.25 0.26 0.27 0.28 0.28 0.28 0.27 0.26 0.25 0.24
0.29 0.28 0.26 0.25 0.25 0.25 0.25 0.25 0.25 0.25 0.25 0.25 0.25 0.25 0.25 0.26 0.25 0.26 0.27 0.27 0.28 0.28 0.28 0.26 0.25 0.26 0.26 0.27 0.27 0.27 0.26 0.26 0.27 0.26 0.28 0.28 0.27 0.27 0.28 0.28 0.27 0.27 0.26
0.27 0.25 0.24 0.24 0.24 0.23 0.23 0.23 0.23 0.23 0.23 0.24 0.24 0.25 0.25 0.25 0.25 0.25 0.26 0.26 0.27 0.26 0.27 0.26 0.26 0.25 0.26 0.26 0.28 0.25 0.23 0.26 0.25 0.27 0.27 0.27 0.27 0.27 0.28 0.27 0.27 0.25 0.24
0.24 0.23 0.22 0.22 0.22 0.22 0.22 0.21 0.22 0.22 0.23 0.23 0.24 0.24 0.25 0.25 0.26 0.26 0.25 0.25 0.25 0.25 0.25 0.26 0.26 0.26 0.25 0.25 0.24 0.25 0.23 0.23 0.25 0.26 0.25 0.24 0.24 0.24 0.24 0.24 0.24 0.24 0.23
0.22 0.22 0.22 0.21 0.21 0.21 0.21 0.23 0.24 0.24 0.24 0.24 0.23 0.24 0.25 0.26 0.26 0.27 0.28 0.30 0.32 0.27 0.26 0.25 0.25 0.25 0.26 0.26 0.26 0.25 0.23 0.20 0.17 0.25 0.23 0.22 0.25 0.22 0.23 0.23 0.23 0.23 0.24
0.21 0.20 0.20 0.20 0.19 0.20 0.21 0.22 0.24 0.24 0.25 0.25 0.24 0.24 0.24 0.25 0.26 0.26 0.27 0.27 0.28 0.28 0.30 0.30 0.27 0.26 0.26 0.27 0.25 0.22 0.21 0.20 0.20 0.24 0.26 0.21 0.25 0.22 0.24 0.23 0.23 0.24 0.25
0.20 0.19 0.18 0.18 0.18 0.18 0.20 0.21 0.22 0.24 0.23 0.23 0.23 0.23 0.23 0.23 0.24 0.24 0.23 0.23 0.23 0.24 0.25 0.26 0.26 0.27 0.27 0.27 0.26 0.25 0.25 0.26 0.27 0.29 0.30 0.18 0.25 0.20 0.23 0.23 0.23 0.23 0.24
0.16 0.15 0.16 0.16 0.16 0.17 0.19 0.20 0.21 0.22 0.21 0.21 0.21 0.21 0.22 0.22 0.22 0.24 0.24 0.23 0.23 0.24 0.27 0.28 0.30 0.29 0.28 0.28 0.28 0.30 0.26 0.23 0.19 0.22 0.28 0.24 0.23 0.22 0.23 0.22 0.23 0.24 0.24
0.15 0.16 0.16 0.17 0.17 0.17 0.19 0.20 0.21 0.20 0.19 0.19 0.20 0.21 0.22 0.23 0.24 0.25 0.25 0.25 0.22 0.22 0.23 0.23 0.23 0.23 0.27 0.27 0.26 0.26 0.23 0.19 0.18 0.18 0.23 0.21 0.22 0.25 0.20 0.22 0.23 0.24 0.24
Wind_Speed
20 20 20 19 19 19 19 19 19 19 19 19 19 20 20 20 20 21 21 20 20 20 19 19 19 19 19 19 18 17 17 16 16 16 17 19 20 20 20 20 20 19 19
22 21 21 21 21 21 20 20 21 21 21 21 21 21 21 21 22 22 22 22 21 21 22 21 21 21 21 21 20 19 19 18 17 17 17 18 20 22 22 22 22 21 21
23 23 23 22 22 22 22 22 22 22 22 23 22 22 23 22 22 23 23 23 24 23 23 24 24 24 24 24 23 23 23 22 21 20 20 19 19 20 22 23 24 24 23
24 24 24 24 23 23 23 23 23 24 24 24 24 24 24 24 24 23 24 24 24 25 25 25 25 26 26 26 26 26 25 25 25 24 23 23 22 21 22 23 24 25 26
25 25 24 24 24 24 24 24 24 24 25 25 25 25 25 25 25 25 25 25 26 26 27 27 27 27 27 28 28 28 28 28 28 27 26 25 24 25 24 22 24 25 27
27 26 26 26 26 25 25 25 25 25 25 26 26 26 26 26 26 27 27 27 27 28 28 29 29 29 29 30 30 30 30 30 30 31 30 29 28 28 27 25 25 25 27
28 28 28 27 27 26 26 26 26 25 25 26 27 27 28 29 28 29 29 29 29 29 30 30 31 32 32 32 32 32 32 33 33 33 33 33 32 30 30 30 29 27 27
29 29 29 28 28 28 28 27 27 27 27 26 28 29 29 30 31 31 32 31 31 31 32 32 32 33 33 33 33 33 33 33 34 35 36 36 36 35 34 33 33 33 31
30 30 30 30 30 29 29 29 28 28 28 28 28 29 30 31 31 32 32 33 33 33 33 34 34 34 34 35 35 35 35 35 35 36 37 38 38 38 39 38 38 35 36
31 31 31 31 31 31 30 30 30 30 30 30 31 31 31 32 33 33 34 34 34 34 34 35 35 36 36 36 36 36 36 36 37 38 39 40 40 41 42 42 41 42 40
32 32 32 31 31 31 31 31 32 32 32 32 32 33 33 34 34 35 35 36 36 36 36 37 37 37 37 37 37 38 38 38 39 39 40 41 42 43 44 45 45 45 44
33 32 32 32 32 32 32 33 33 34 34 34 34 34 34 35 35 36 36 37 38 38 38 38 38 38 39 39 39 40 41 41 42 42 43 43 43 44 45 46 47 48 49
33 33 33 33 33 34 34 34 35 35 35 35 36 36 36 37 37 38 38 39 39 39 39 39 40 40 40 41 41 42 43 44 44 44 45 45 46 46 47 47 48 49 50
31 32 33 33 34 34 35 35 35 36 36 37 37 38 38 39 39 40 40 40 40 40 40 41 41 41 42 42 43 44 44 45 45 46 46 47 47 48 48 49 49 50 50
28 29 30 31 32 33 34 35 36 37 37 38 39 40 40 41 41 41 42 42 41 40 40 40 41 42 43 44 44 44 45 45 46 47 47 48 48 49 49 50 51 51 52
31 31 31 31 32 33 34 35 36 38 39 40 40 41 41 42 42 42 43 43 44 44 43 41 42 44 46 46 46 46 46 47 47 48 48 49 49 50 51 51 52 53 54
31 32 33 34 35 35 36 37 38 39 39 40 41 41 42 43 43 43 44 44 44 45 46 45 44 45 46 47 47 47 48 48 48 48 49 50 51 51 52 53 54 54 55
31 33 34 35 36 37 38 39 39 40 41 41 42 42 43 43 43 44 44 44 45 45 46 46 45 45 46 47 48 49 49 49 49 50 51 51 52 53 53 54 55 56 57
34 35 36 37 38 38 39 39 40 40 41 41 42 43 43 43 43 44 44 45 45 45 46 47 46 45 46 46 47 48 49 50 51 51 51 52 53 54 55 55 56 57 59
37 37 37 38 38 39 39 40 40 40 41 41 41 41 42 43 44 44 44 44 45 45 46 47 48 47 46 46 47 47 48 49 49 50 51 52 53 54 55 56 57 57 59
35 35 36 36 37 37 38 38 38 39 39 40 41 41 42 43 43 44 43 44 44 45 45 47 47 48 47 46 46 46 48 48 49 49 50 50 52 53 54 55 57 58 59
33 33 33 34 35 35 36 36 37 37 38 38 38 39 39 40 41 42 44 45 45 46 46 46 46 47 46 46 45 46 47 47 48 48 50 50 51 53 53 55 57 59 61
32 32 33 33 33 33 34 34 35 35 35 35 36 36 37 37 38 39 40 42 43 44 45 44 44 44 45 45 46 46 47 48 48 48 49 51 50 52 52 54 56 59 60
30 30 31 31 32 32 32 33 33 33 33 34 34 35 35 36 36 37 38 40 41 41 42 43 44 44 45 45 46 46 47 48 49 49 48 50 48 51 52 54 56 57 59
29 30 30 31 31 31 32 32 32 32 33 33 33 34 34 35 35 36 37 39 40 40 41 43 44 45 46 46 45 45 44 45 47 46 45 48 49 50 52 53 54 55 57
29 29 30 30 31 31 32 32 32 32 33 33 34 34 35 35 36 37 38 38 40 40 41 43 43 44 43 43 44 45 45 46 46 46 45 46 47 47 49 48 49 50 52
Wind_Direction
247 250 252 253 254 255 254 253 252 250 248 247 246 246 245 243 242 242 242 243 243 242 243 242 242 242 242 242 241 241 240 240 239 238 238 238 236 236 236 236 236 235 233
249 251 252 254 254 255 254 253 253 252 250 248 248 247 246 245 244 243 242 243 244 244 243 245 244 244 243 243 242 243 242 242 242 241 241 241 240 239 239 239 238 238 237
251 252 253 254 254 255 255 254 254 253 251 250 250 248 246 246 245 244 244 244 244 245 247 246 247 247 247 248 247 245 244 244 243 243 243 244 244 242 241 241 241 240 240
252 253 253 254 254 255 255 255 254 254 253 251 251 248 247 246 246 246 246 246 247 247 248 249 248 248 249 249 249 248 248 247 246 246 245 245 246 245 244 243 243 242 242
253 254 254 254 255 255 255 255 254 254 254 252 251 249 248 247 246 247 247 248 249 250 250 251 250 250 250 250 251 250 249 249 247 247 246 246 246 245 246 247 246 245 244
254 255 255 255 256 256 256 255 255 255 255 253 251 249 248 248 247 248 249 250 251 252 252 252 252 252 252 251 251 251 251 250 249 249 248 247 248 247 246 247 247 249 247
255 256 256 256 256 256 256 256 255 256 256 255 251 250 250 250 250 250 251 252 254 254 254 254 254 253 253 253 253 252 252 251 251 250 249 248 248 248 247 247 247 249 249
256 257 257 257 257 257 257 257 256 255 256 256 254 252 252 251 252 253 253 253 254 256 255 255 256 254 254 253 253 252 253 252 251 250 250 250 250 249 249 250 249 249 250
256 256 257 257 257 257 257 257 257 256 256 256 257 255 254 254 256 254 253 254 255 258 257 257 257 255 254 253 253 253 253 252 252 251 251 251 251 251 251 251 250 252 250
256 257 257 257 257 257 257 257 257 257 257 257 257 257 257 257 257 256 254 255 257 257 258 258 256 254 253 253 253 253 253 253 254 254 253 253 253 252 252 251 250 251 251
256 256 256 257 257 257 258 257 257 258 258 258 258 258 258 259 258 257 258 258 259 259 258 259 256 254 254 253 253 254 254 255 256 255 255 255 254 254 253 253 252 251 252
256 256 257 257 258 258 258 259 259 260 260 259 260 259 259 259 258 258 259 260 261 258 260 257 256 256 255 255 255 256 256 257 256 256 256 256 256 256 255 254 254 253 253
256 257 258 258 259 259 259 261 261 261 260 261 260 261 261 260 260 260 260 260 260 260 259 259 257 257 256 257 258 258 258 257 257 257 257 257 257 257 256 256 255 254 253
257 257 258 259 260 260 261 261 261 262 262 262 262 263 263 262 262 261 261 261 261 259 260 259 259 258 258 259 260 260 258 258 258 258 257 258 258 258 257 256 256 255 254
257 259 260 260 262 262 262 262 263 263 263 264 264 264 264 264 263 262 262 261 260 261 260 259 259 259 259 261 261 260 259 259 259 258 258 258 258 258 258 257 256 256 255
258 260 262 264 264 265 265 265 265 265 265 265 265 265 265 264 264 263 262 262 261 260 260 260 259 260 262 261 261 261 260 260 260 260 259 259 259 259 259 258 258 257 256
261 264 264 266 267 268 268 268 267 267 267 267 266 266 265 265 265 264 263 262 262 261 261 262 261 261 262 262 262 261 261 261 261 261 260 260 260 260 259 259 259 258 257
265 267 268 269 270 270 269 269 269 268 268 267 267 266 266 266 265 264 263 263 262 262 262 262 263 262 262 262 262 262 262 261 261 262 262 261 261 261 260 260 260 259 258
268 270 270 271 271 271 271 270 270 269 269 268 268 267 267 266 265 264 263 263 263 263 262 263 264 264 263 263 263 262 262 262 262 262 262 262 262 262 262 261 261 261 260
270 270 271 271 271 272 271 271 270 270 269 269 269 268 267 266 265 265 264 263 263 262 262 263 263 265 265 264 264 264 263 263 263 263 263 263 263 263 262 262 262 262 262
270 271 271 272 272 272 271 271 270 270 270 270 270 269 268 267 266 264 264 263 263 263 263 264 264 265 265 265 264 264 264 264 264 263 263 264 264 264 264 264 263 263 263
270 271 272 273 273 273 272 271 271 270 270 270 270 270 269 268 267 265 264 264 263 263 263 263 264 265 264 264 265 265 265 265 264 264 264 264 265 265 266 266 266 265 264
271 272 272 273 274 274 273 272 271 271 271 271 271 270 270 269 268 267 266 265 264 263 263 263 263 263 264 265 267 267 266 265 264 265 266 265 267 267 267 267 267 267 266
272 272 272 273 273 274 273 273 272 272 271 271 271 271 271 270 269 268 267 266 264 263 263 262 263 263 265 266 266 267 266 266 266 266 266 266 269 268 269 269 269 269 268
273 273 274 274 274 274 274 274 273 272 272 272 272 272 271 271 270 270 268 267 266 265 264 264 264 265 266 267 267 267 266 267 267 266 267 268 271 271 271 271 271 271 270
274 275 275 275 275 275 275 275 274 273 273 273 273 273 273 272 271 271 269 268 268 267 266 265 266 266 266 266 266 266 267 267 267 268 269 269 271 273 273 273 272 271 271